This demonstration page uses our WeatherBlox Daily Observations layout. Learn more.

Hourly Observations for April 20, 2015

Temp ( °F °C ) Dew Point ( °F °C ) Humidity (%) Winds ( mph kmh ) Pressure ( in mb ) Visibility ( mi km ) Precip ( " mm )
12:15 am 00:15 Clear 40 4.5 30 -1.2 67 67 NNW 12 19 29.97 1015 10 16.0934 0 0
12:35 am 00:35 Clear 39 3.9 30 -1.1 70 70 NW 9 15 30 1016 10 16.0934 0 0
12:55 am 00:55 Clear 39 4.1 30 -1.1 69 69 NW 8 13 30 1016 10 16.0934 0 0
1:15 am 01:15 Clear 37 2.9 30 -0.9 76 76 WNW 9 15 30 1016 10 16.0934 0 0
1:35 am 01:35 Clear 36 2.3 30 -1.1 78 78 NW 8 13 30.03 1017 10 16.0934 0 0
1:55 am 01:55 Clear 36 2.4 30 -1 79 79 NW 8 13 30.03 1017 10 16.0934 0 0
2:15 am 02:15 Clear 37 2.6 30 -1.1 77 77 NW 8 13 30 1016 10 16.0934 0 0
2:35 am 02:35 Clear 37 2.7 30 -1.1 76 76 NW 10 17 30 1016 10 16.0934 0 0
2:55 am 02:55 Clear 37 2.8 29 -1.5 74 74 WNW 9 15 30 1016 10 16.0934 0 0
3:15 am 03:15 Clear 37 2.5 29 -1.5 75 75 NW 8 13 29.97 1015 10 16.0934 0 0
3:35 am 03:35 Clear 36 2.3 29 -1.6 76 76 WNW 7 11 30.03 1017 10 16.0934 0 0
3:55 am 03:55 Clear 36 2.2 29 -1.7 76 76 WNW 7 11 30.03 1017 10 16.0934 0 0
4:15 am 04:15 Clear 36 2.3 29 -1.7 75 75 WNW 10 17 30.03 1017 10 16.0934 0 0
4:35 am 04:35 Clear 36 2.2 28 -2 74 74 WNW 9 15 30.03 1017 10 16.0934 0 0
4:55 am 04:55 Clear 36 2.2 28 -2 74 74 WNW 9 15 30.03 1017 10 16.0934 0 0
5:15 am 05:15 Clear 35 1.5 28 -2 78 78 WNW 8 13 30.03 1017 10 16.0934 0 0
5:35 am 05:35 Clear 33 0.7 29 -1.8 84 84 NW 9 15 30.03 1017 10 16.0934 0 0
5:55 am 05:55 Clear 35 1.5 29 -1.8 79 79 WNW 8 13 30.03 1017 10 16.0934 0 0
6:15 am 06:15 Clear 34 1.2 29 -1.9 80 80 W 7 11 30.03 1017 10 16.0934 0 0
6:35 am 06:35 Clear 34 1.1 29 -1.6 82 82 WNW 9 15 30.03 1017 10 16.0934 0 0
6:55 am 06:55 Sunny 34 1.1 29 -1.7 82 82 WNW 6 9 30.03 1017 10 16.0934 0 0
7:15 am 07:15 Sunny 34 1 29 -1.7 82 82 WNW 6 9 30.03 1017 10 16.0934 0 0
7:35 am 07:35 Sunny 34 0.9 29 -1.5 84 84 WNW 6 9 30.03 1017 10 16.0934 0 0
7:55 am 07:55 Sunny 35 1.6 29 -1.5 80 80 WNW 6 9 30.06 1018 10 16.0934 0 0
8:15 am 08:15 Sunny 37 2.6 31 -0.8 79 79 WNW 7 11 30.03 1017 10 16.0934 0 0
8:35 am 08:35 Sunny 38 3.5 31 -0.6 75 75 WNW 10 17 30.03 1017 10 16.0934 0 0
8:55 am 08:55 Sunny 41 4.9 31 -0.3 69 69 WNW 12 19 30.03 1017 10 16.0934 0 0
9:15 am 09:15 Sunny 43 6 31 -0.4 64 64 NW 13 20 30 1016 10 16.0934 0 0
9:35 am 09:35 Sunny 44 6.6 31 -0.6 60 60 NW 15 24 30 1016 10 16.0934 0 0
9:55 am 09:55 Sunny 45 7.4 31 -0.8 56 56 NW 15 24 30 1016 10 16.0934 0 0
10:15 am 10:15 Sunny 47 8.2 30 -0.9 53 53 NW 15 24 30 1016 10 16.0934 0 0
10:35 am 10:35 Sunny 48 9.1 28 -2 46 46 WNW 15 24 29.94 1014 10 16.0934 0 0
10:55 am 10:55 Sunny 49 9.4 25 -4.1 39 39 WNW 17 28 29.94 1014 10 16.0934 0 0
11:15 am 11:15 Sunny 50 10.1 23 -5.1 34 34 NW 18 30 29.94 1014 10 16.0934 0 0
11:35 am 11:35 Sunny 51 10.5 23 -5 34 34 NW 16 26 29.94 1014 10 16.0934 0 0
11:55 am 11:55 Sunny 51 10.4 22 -5.5 33 33 NW 22 35 29.94 1014 10 16.0934 0 0
12:15 pm 12:15 Partly Cloudy 52 11.1 24 -4.5 33 33 NNW 17 28 29.94 1014 10 16.0934 0 0
12:35 pm 12:35 Partly Cloudy 51 10.3 22 -5.3 33 33 NW 15 24 29.94 1014 10 16.0934 0 0
12:55 pm 12:55 Partly Cloudy 53 11.4 22 -5.4 31 31 WNW 21 33 29.91 1013 10 16.0934 0 0
1:15 pm 13:15 Mostly Cloudy 52 11.2 23 -5 32 32 WNW 17 28 29.91 1013 10 16.0934 0 0
1:35 pm 13:35 Mostly Cloudy 54 12.1 23 -5 30 30 WNW 17 28 29.88 1012 10 16.0934 0 0
1:55 pm 13:55 Mostly Cloudy 54 12.3 22 -5.4 29 29 NW 21 33 29.88 1012 10 16.0934 0 0
2:15 pm 14:15 Mostly Cloudy 55 12.8 23 -5.1 29 29 WNW 20 31 29.88 1012 10 16.0934 0 0
2:35 pm 14:35 Mostly Cloudy 53 11.7 21 -5.9 29 29 NW 18 30 29.85 1011 10 16.0934 0 0
2:55 pm 14:55 Partly Cloudy 55 12.7 23 -5 29 29 NW 23 37 29.85 1011 10 16.0934 0 0
3:15 pm 15:15 Partly Cloudy 55 12.9 23 -4.9 29 29 NW 22 35 29.85 1011 10 16.0934 0 0
3:35 pm 15:35 Partly Cloudy 56 13.2 22 -5.7 27 27 NW 23 37 29.85 1011 10 16.0934 0 0
3:55 pm 15:55 Partly Cloudy 56 13.3 22 -5.4 27 27 NW 21 33 29.85 1011 10 16.0934 0 0
4:15 pm 16:15 Partly Cloudy 56 13.4 21 -6.1 25 25 WNW 16 26 29.83 1010 10 16.0934 0 0
4:35 pm 16:35 Partly Cloudy 56 13.1 22 -5.4 27 27 WNW 22 35 29.83 1010 10 16.0934 0 0
4:55 pm 16:55 Partly Cloudy 56 13.6 22 -5.7 26 26 NW 23 37 29.83 1010 10 16.0934 0 0
5:15 pm 17:15 Sunny 56 13.6 21 -5.9 26 26 NW 14 22 29.83 1010 10 16.0934 0 0
5:35 pm 17:35 Sunny 56 13.6 22 -5.5 26 26 NW 18 30 29.83 1010 10 16.0934 0 0
5:55 pm 17:55 Partly Cloudy 57 13.7 23 -4.9 27 27 NW 20 31 29.83 1010 10 16.0934 0 0
6:15 pm 18:15 Partly Cloudy 56 13.4 22 -5.5 27 27 NW 15 24 29.83 1010 10 16.0934 0 0
6:35 pm 18:35 Sunny 55 13 22 -5.8 27 27 NW 16 26 29.83 1010 10 16.0934 0 0
6:55 pm 18:55 Partly Cloudy 55 12.5 23 -4.9 30 30 NW 12 19 29.8 1009 10 16.0934 0 0
7:15 pm 19:15 Partly Cloudy 53 11.7 26 -3.5 35 35 NW 9 15 29.8 1009 10 16.0934 0 0
7:35 pm 19:35 Partly Cloudy 53 11.5 27 -3 36 36 NW 6 9 29.8 1009 10 16.0934 0 0
7:55 pm 19:55 Mostly Cloudy 52 10.9 28 -2.1 41 41 NW 3 6 29.8 1009 10 16.0934 0 0
8:15 pm 20:15 Partly Cloudy 49 9.5 29 -1.4 47 47 NW 6 9 29.83 1010 10 16.0934 0 0
8:35 pm 20:35 Clear 48 8.9 29 -1.4 49 49 NNW 5 7 29.85 1011 10 16.0934 0 0
8:55 pm 20:55 Clear 46 7.8 30 -1.1 54 54 Calm 29.85 1011 10 16.0934 0 0
9:15 pm 21:15 Clear 44 6.4 31 -0.7 61 61 Calm 29.88 1012 10 16.0934 0 0
9:35 pm 21:35 Clear 43 6.1 30 -1.2 60 60 Calm 29.88 1012 10 16.0934 0 0
9:55 pm 21:55 Clear 41 5.1 31 -0.8 66 66 Calm 29.91 1013 10 16.0934 0 0
10:15 pm 22:15 Clear 42 5.5 30 -1 63 63 Calm 29.91 1013 10 16.0934 0 0
10:35 pm 22:35 Clear 40 4.4 31 -0.6 70 70 Calm 29.94 1014 10 16.0934 0 0
10:55 pm 22:55 Clear 40 4.5 30 -1 68 68 Calm 29.91 1013 10 16.0934 0 0
11:15 pm 23:15 Clear 40 4.3 31 -0.5 71 71 Calm 29.94 1014 10 16.0934 0 0
11:35 pm 23:35 Clear 38 3.1 31 -0.6 77 77 Calm 29.94 1014 10 16.0934 0 0
11:55 pm 23:55 Clear 37 3 32 -0.2 80 80 Calm 29.94 1014 10 16.0934 0 0

Powered by AerisWeather